Showing default

CATSAT, 60246

Orbit data source: Space-Track

CATSAT, 60246 is a payload satellite owned by U. Arizona (US) in SSO that was launched on Thu, 04 Jul 2024 UTC via an FIREFLY ALPHA launch vehicle from the Air Force Western Test Range (AFWTR). Payload-class satellites include a variety of spacecraft equipped with specific instruments for various scientific and technological missions. These include communications satellites like Starlink; space stations such as the ISS; scientific satellites like the Hubble; Earth observation satellites from companies like Planet Labs, Umbra, and HawkEye 360; GPS; miniature CubeSats for education and research; and military/defense satellites.

Loading next visibility...
Identifier
60246, 2024-125J
Orbit
SSO
Last TLE update
12 hours ago
Origin
Manufacturer
U. Arizona
Mission
Operational spacecraft
Bus & Motor
CUBESAT 6U, Unknown motor
Mass
12 kg wet, ~12 kg dry
Launch date (UTC)
2024-07-04 (1 year ago)
Launch vehicle
FIREFLY ALPHA
Launch site
Air Force Western Test Range (AFWTR)
Object type
Payload
Rocket body
Debris
Shape & HBR
Unknown
Radar Cross Section
Medium (>0.1 m² and <1 m²)

Expand to show TLE details & history

TLE from 12 hours ago
0 CATSAT
1 60246U 24125J   25189.84889747  .00006707  00000-0  22163-3 0  9999
2 60246  97.2566  40.0290 0041563 352.3468   7.7134 15.30855466 54464
Epoch: 2025-07-08T20:22Z
TLE epoch observation values (Epoch: 2025-07-08T20:22:24.741Z)
Latitude
-0°
Longitude
167.38793°
Altitude
448.145 km
Speed
7.659 km/s
True Right ascension
02h 40m 06s
True Declination
0° 00' 00"
Sunlit
Object was in daylight at epoch
Visualization orbit readout
Latitude
1.24803°
Longitude
-11.97478°
Altitude
504.394 km
Speed
7.596 km/s
Apparent Right ascension
12h 12m 40s
Apparent Declination
-26° 07' 04"
Sunlit
Object is in daylight
Visualization observer readout
Local Sidereal Time
20:17:36
Azimuth
267.1° W
Elevation
-39.76°
Doppler factor
1
Orbital elements
Apogee altitude
498.667 km
Perigee altitude
441.74 km
Semi-major axis
6,848.341 km
Eccentricity
0.00416
Inclination
97.2566°
RAAN
40.029°
Arg. of periapsis
352.3468°
True anomaly
Unknown
Mean anomaly
7.7134°
Eccentric anomaly
Unknown
Mean motion
3.8297 °/min
Orbital period
94 mins
BSTAR
0.00022163
Loading maneuver chart data...
Loading SW <> Apogee altitude chart data...
Loading historical data...
Loading historical data...
Loading historical data...
Loading historical data...
Loading historical data...
Loading historical data...
Loading historical data...

CATSAT Visibility forecast

Observer location: undefined°, undefined°

Span
Click to sort rows by Start time (UTC) header in descending order
Start Az.
Max El. time (UTC)
Max El. Az.
Max El.
End time (UTC)
End Az.
5 mins2025-07-09 13:45:59.892Z143.349° SSE2025-07-09 13:47:59.892Z100.267° ESE33.775°2025-07-09 13:50:59.892Z5.269° NNE
5 mins2025-07-10 02:44:59.892Z21.625° NNE2025-07-10 02:46:59.892Z64.471° ENE41.336°2025-07-10 02:49:59.892Z181.294° SSW
|